CZ-6A DEB

Satellite information

Favourite Embed

Satellite Type and Status

DEBRISIN ORBIT

Key statistics

Satellite CZ-6A DEB at a glance.

Uptime

967

Days in orbit

Revolutions

≈ 14.1

Per day

Orbit

SSO

Sun Synchronous Orbit

Inclination

98.8

Latest

Satellite identification and parameters

Extended collection of information and parameters for CZ-6A DEB.

Object identification

Identified? True

Debris? True

Object name: CZ-6A DEB

International designator: 2022-151AAE

Object number (NORAD): 55882

Object ID (CCSDS): 55882

Country: PEOPLES REPUBLIC OF CHINA (PRC)

Current information (Y/N): Y

RCS size: SMALL

Orbital parameters

Period: 101.81 minutes

Inclination: 98.8157 deg

SMA: 7222.512 km

Apoapsis: 876.938 km

Periapsis: 811.815 km

RAAN: 187.263 deg

Eccentricy: 0.0045083

Argument of periapsis: 245.2891 deg

Mean anomaly: 114.3585 deg

Mean motion: 14.14393942 rev/day

Mean motion (dot): 0.00001079 rev/day2

B* drag term: 0.00058117 1/REarth

Two-line elements (TLE)

Creation date: July 4, 2025, 3:20 a.m.

Reference frame: TEME

Reference center: EARTH

Epoch: July 3, 2025, 11:16 p.m. UTC

TLE line 0: 0 CZ-6A DEB

TLE line 1: 1 55882U 22151AAE 25184.96991539 .00001079 00000-0 58117-3 0 9992

TLE line 2: 2 55882 98.8157 187.2630 0045083 245.2891 114.3585 14.14393942123830

Live tracking on map

Real-time ground track for satellite CZ-6A DEB.

In-orbit conjunctions

A list of the most updated potential collisions computed for object CZ-6A DEB.

Target Orbit TCA Probability of collision Miss distance Type
FENGYUN 1C DEB SSO 2025-02-17 09:29:45 0.0001103329 30.0 (m) DEBRIS
FENGYUN 1C DEB SSO 2025-01-31 18:08:04 0.0001085904 68.0 (m) DEBRIS
SL-16 DEB LEO 2025-01-16 07:39:09 0.0001772061 199.0 (m) DEBRIS
SL-3 R/B LEO 2024-08-18 11:46:16 0.003439515 31.0 (m) ROCKET BODY

Associated space launch

Chinese satellite reported for atmospheric/ocean/environmental/spatial parameter research purposes, details TBD.

CZ-6A DEB was lifted into orbit during the mission ‘Long March 6A | Yunhai 3’, on board a Long March 6A space rocket.

The launch took place on Nov. 11, 2022, 10:52 p.m. from Launch Complex 9A.

For more information about the launch, click the button.

Launch to space Long March 6A | Yunhai 3
Long March 6A | Yunhai 3

Agency: N/A

Status: Launch Successful

Launch date: Nov. 11, 2022, 10:52 p.m. UTC

Rocket: Long March 6A

Launch pad: Launch Complex 9A

Location: Taiyuan Satellite Launch Center, People's Republic of China

...

Latest news about this satellite

There are no fresh news available about this satellite. Check back as we update our databases every day.


Newsletter sign-up

Weekly statistics, charts and insights to help you stay on top of the space industry.